Regional Weather Roundup
Issued by NWS

Home | Current Version | Previous Version | Graphics & Text | Print | Product List | Glossary On
Versions: 1 2 3 4 5 6 7 8 9 10 11 12 13 14 15 16 17 18 19 20 21 22 23 24 25 26 27
000
ASUS45 KBOU 240310
RWRCO

WEATHER ROUNDUP FOR COLORADO
NATIONAL WEATHER SERVICE DENVER/BOULDER CO
800 PM MST THU NOV 23 2017

NOTE: "FAIR" INDICATES FEW OR NO CLOUDS BELOW 12000 FEET WITH NO
SIGNIFICANT WEATHER AND/OR OBSTRUCTIONS TO VISIBILITY.

COZ001>005-013-030-031-240400-
...NORTHWEST COLORADO...

CITY           SKY/WX    TMP DP  RH WIND       PRES   REMARKS
CRAIG          FAIR      37  32  82 CALM      30.17S
HAYDEN         FAIR      42  35  76 SE7       30.19S
MEEKER         FAIR      41  33  73 NE6       30.18F
RABBIT EARS PA FAIR      32  32 100 W12G18    30.31S WCI  23
STEAMBOAT SPGS FAIR      39  34  81 CALM      30.19S
WALDEN         FAIR      46  28  49 SW14      30.21S
$$

COZ006>008-011-240400-
...WEST CENTRAL VALLEYS...

CITY           SKY/WX    TMP DP  RH WIND       PRES   REMARKS
GRAND JUNCTION FAIR      45  33  63 E5        30.16F
MONTROSE       FAIR      39  31  72 SE9       30.23F
EAGLE          NOT AVBL
RIFLE          FAIR      40  35  83 CALM      30.20F
DELTA          FAIR      44  31  60 E7        30.20S
NUCLA          FAIR      45  28  53 E13       30.25S
$$

COZ017>023-064>068-240400-
...SOUTHWEST COLORADO...

CITY           SKY/WX    TMP DP  RH WIND       PRES   REMARKS
DURANGO        FAIR      39  26  59 N8        30.25S
CORTEZ         FAIR      36  26  67 NE9       30.23S
PAGOSA SPRINGS FAIR      37  26  63 CALM      30.30S
TELLURIDE      FAIR      42  14  33 SE7       30.38S
WOLF CREEK PAS FAIR      36  12  38 W8        30.52S
$$

COZ009-010-012-014-032>034-037-058>063-240400-
...CENTRAL COLORADO...

CITY           SKY/WX    TMP DP  RH WIND       PRES   REMARKS
ASPEN          FAIR      34  27  75 S8        30.26F WCI  27
BUENA VISTA    FAIR      39  21  48 CALM      30.21F
COPPER MTN     NOT AVBL
BERTHOUD PASS  FAIR      30  19  64 NW43G49   30.33S WCI  13
COTTONWOOD PAS FAIR      52  14  22 W13G21    30.29F
GUNNISON       FAIR      31  27  85 E5        30.29S WCI  26
KREMMLING      FAIR      39  32  75 CALM      30.23F
LEADVILLE      FAIR      41  16  36 VRB7      30.31
MONARCH PASS   FAIR      32  25  74 W38       30.48F WCI  16
SALIDA         FAIR      55  23  28 CALM      30.26F
SUNLIGHT       FAIR      34  19  55 SW14G22   30.41S WCI  24
WILKERSON PASS FAIR      37  10  32 W8G18     30.35F
$$

COZ069>075-240400-
...SAN LUIS VALLEY/SANGRE DE CRISTO MOUNTAINS...

CITY           SKY/WX    TMP DP  RH WIND       PRES   REMARKS
ALAMOSA        FAIR      36  23  59 W3        30.25S
DEL NORTE      FAIR      38  25  59 W6        30.28S
LA VETA PASS   FAIR      43  16  33 S18G29      N/A
SAGUACHE       FAIR      34  21  60 N3        30.28S
$$

COZ035-036-038>040-240400-
...NORTHERN COLORADO FRONT RANGE...

CITY           SKY/WX    TMP DP  RH WIND       PRES   REMARKS
DENVER INTL AP MOCLDY    57  22  25 SW9       29.97F
DMNS CITY PARK   N/A     55  24  30 SE8       29.98S
AURORA         MOCLDY    51  25  36 S7        30.00F
FRONT RANGE AP MOCLDY    54  28  37 SE8       29.99F
ERIE MUNI ARPT FAIR      48  25  40 SE6       30.01F
BOULDER MUN AP FAIR      57  25  28 S6        29.96F
CENTENNIAL     CLOUDY    50  28  42 SE7       30.00F
BROOMFIELD     MOCLDY    63  21  20 SW12G24   30.00F
FORT COLLINS   FAIR      46  35  65 S8        29.93F
LONGMONT       FAIR      62  27  27 NW9       29.97F
$$

COZ041-046-047-076>085-087-088-240400-
...PIKES PEAK/PALMER DIVIDE AND SOUTHERN FOOTHILLS...

CITY           SKY/WX    TMP DP  RH WIND       PRES   REMARKS
COLO. SPRINGS  CLOUDY    54  29  38 CALM      30.05F
A. F. ACADEMY  FAIR      46  26  45 NE3       30.06F
SCHRIEVER AFB  MOCLDY    52  28  39 CALM      30.05F
CHEYENNE MTN   CLOUDY    55  24  30 CALM      30.03F
ELLICOTT         N/A    N/A N/A N/A SE3       30.04F
FALCON         FAIR      51  27  39 CALM      30.09F
FORT CARSON    CLOUDY    50  30  47 N5        30.02F
LIMON          FAIR      39  30  70 CALM      30.00F
MONUMENT HILL  FAIR      52  21  30 SW13      30.09S
CANON CITY     FAIR      61  27  27 NW14      30.03S
WALSENBURG     FAIR      61  21  21 W15       30.08S
TRINIDAD       FAIR      53  32  44 SW10      30.06F
$$

COZ042>045-048>051-090-091-240400-
...NORTHEAST COLORADO...

CITY           SKY/WX    TMP DP  RH WIND       PRES   REMARKS
GREELEY ARPT   FAIR      43  31  62 N3        29.93F
AKRON          FAIR      52  27  38 SW13      29.92F
BURLINGTON     FAIR      50  35  56 SW10      29.94F
WRAY           NOT AVBL
YUMA           FAIR      45  32  61 SW9       29.90F
STERLING       FAIR      50  32  50 CALM      29.89R
HOLYOKE        FAIR      50  32  50 W9        29.87F
FORT MORGAN    FAIR      52  27  37 CALM      29.93S
$$

COZ086-089-092>099-240400-
...SOUTHEAST COLORADO...

CITY           SKY/WX    TMP DP  RH WIND       PRES   REMARKS
PUEBLO         FAIR      46  31  55 W6        29.98F
LA JUNTA       FAIR      50  34  54 SW8       29.96F
LAMAR          FAIR      43  30  60 CALM      29.93F
SPRINGFIELD      N/A     50  34  54 SW13      29.99F
$$




USA.gov is the U.S. government's official web portal to all federal, state and local government web resources and services.